Date,TemperatureHighF,TemperatureAvgF,TemperatureLowF,DewpointHighF,DewpointAvgF,DewpointLowF,HumidityHigh,HumidityAvg,HumidityLow,PressureMaxIn,PressureMinIn,WindSpeedMaxMPH,WindSpeedAvgMPH,GustSpeedMaxMPH,PrecipitationSumIn
2013-4-1,67.4,55.2,43.3,49.0,44.3,38.0,98,70,42,30.09,29.90,8,2,12,0.01
2013-4-2,52.5,45.6,38.9,39.0,32.1,26.0,91,62,41,30.23,30.07,7,3,14,0.24
2013-4-3,49.4,45.0,39.8,38.0,30.3,24.0,83,58,41,30.20,30.09,7,3,14,0.06
2013-4-4,48.5,43.9,40.2,45.0,40.6,29.0,96,89,48,30.10,29.95,6,2,11,0.33
2013-4-5,68.3,54.0,41.8,46.0,39.4,30.0,98,65,27,30.15,30.02,7,1,9,0.01
2013-4-6,76.2,62.5,42.3,43.0,40.1,34.0,93,49,23,30.07,29.89,7,2,16,0.00
2013-4-7,71.6,64.6,58.4,55.0,51.8,43.0,79,64,50,30.00,29.88,8,2,16,0.00
2013-4-8,79.0,69.2,62.0,59.0,56.3,51.0,82,65,46,29.96,29.82,11,3,18,0.00
2013-4-9,82.2,73.7,65.9,67.0,63.6,58.0,84,71,57,29.95,29.82,10,3,16,0.00
2013-4-10,84.8,76.9,70.8,67.0,65.1,63.0,83,68,50,29.91,29.64,14,3,19,0.04
2013-4-11,72.4,52.4,43.1,66.0,50.8,42.0,96,94,80,29.78,29.65,7,2,19,2.09
2013-4-12,69.6,54.8,40.2,47.0,42.6,37.0,97,68,36,29.98,29.78,7,1,13,0.00
2013-4-13,74.3,59.3,43.3,47.0,41.6,38.0,88,56,28,30.07,29.89,4,1,7,0.00
2013-4-14,69.2,62.3,53.7,56.0,50.8,45.0,81,67,51,29.89,29.72,14,2,20,0.00
2013-4-15,82.6,68.0,56.3,63.0,58.4,53.0,91,73,47,29.89,29.78,11,2,15,0.00
2013-4-16,85.5,76.6,68.9,72.0,68.5,63.0,89,77,58,30.01,29.88,12,2,18,0.01
2013-4-17,87.4,77.8,69.7,70.0,68.1,66.0,91,73,50,30.03,29.81,9,2,16,0.00
2013-4-18,80.4,69.8,45.2,68.0,61.0,43.0,95,75,53,29.82,29.56,15,4,24,2.01
2013-4-19,56.0,47.4,43.6,43.0,34.4,30.0,93,62,42,30.11,29.81,8,2,19,0.00
2013-4-20,69.6,54.4,36.6,42.0,36.4,32.0,95,57,28,30.24,30.11,6,1,8,0.00
2013-4-21,70.8,58.0,44.6,42.0,36.9,33.0,79,49,25,30.31,30.15,9,2,12,0.00
2013-4-22,77.4,62.3,44.3,50.0,45.0,39.0,89,56,33,30.17,29.98,7,1,13,0.00
2013-4-23,74.7,66.4,58.9,61.0,57.6,50.0,87,74,59,30.02,29.86,13,2,16,0.00
2013-4-24,68.3,49.7,42.2,63.0,44.2,39.0,96,82,57,30.27,29.84,7,3,14,1.31
2013-4-25,69.8,53.3,36.2,43.0,38.1,34.0,96,63,28,30.37,30.25,4,1,10,0.01
2013-4-26,67.4,56.1,49.5,52.0,45.1,40.0,86,68,40,30.38,30.18,6,2,14,0.05
2013-4-27,73.3,62.1,52.6,67.0,57.8,48.0,95,86,77,30.19,29.84,5,2,14,0.24
2013-4-28,67.0,60.6,52.5,59.0,54.5,51.0,93,81,62,29.95,29.89,6,1,10,0.00
2013-4-29,81.9,65.3,47.5,57.0,53.1,47.0,97,69,40,29.98,29.84,5,1,7,0.01
2013-4-30,84.2,71.9,59.4,60.0,54.2,50.0,84,56,36,29.92,29.85,8,1,11,0.00